カタログに戻る

H-2A R/B

運用中PO
NORAD 39771·ROCKET BODY·🇯🇵 Japan

打ち上げ May 24, 2014 から Tanegashima Space Center

Loading…

次のパス (今後24時間)

TLE

最新Source: Space-Track

元期: Sep 14, 2026, 23:09 UTC

1 39771U 14029F   26257.96482531  .00004467  00000-0  24090-3 0  9992
2 39771  98.2038 261.2194 0008166 192.8276 167.2747 15.15338964672464

AllMySatでH-2A R/Bをリアルタイム追跡

Download on the App Store